EW4279 Weather Reports


time (UTC)temp
F
wind
direction
speed
knots
gust
knots
rain 1hr
in
rain 24hr
in
rain mn
in
humidity
%
barometer
mb
20260504231506 63 237 0.0 1.7 0.00 0.00 0.00 48 1004.9
20260504230002 65 237 0.9 3.5 0.00 0.00 0.00 43 1004.7
20260504224559 66 237 1.7 4.3 0.00 0.00 0.00 42 1004.6
20260504223110 67 230 0.9 7.0 0.00 0.00 0.00 41 1004.6
20260504221551 67 261 0.0 5.2 0.00 0.00 0.00 42 1004.7
20260504220045 68 240 3.5 7.0 0.00 0.00 0.00 39 1004.6
20260504214541 68 257 1.7 7.0 0.00 0.00 0.00 39 1004.5
20260504213036 68 265 1.7 9.6 0.00 0.00 0.00 39 1004.6
20260504211544 68 260 1.7 7.8 0.00 0.00 0.00 40 1004.6
20260504210028 68 227 1.7 9.6 0.00 0.00 0.00 39 1004.5
20260504204523 68 249 4.3 11.3 0.00 0.00 0.00 39 1004.5
20260504203018 68 321 5.2 10.4 0.00 0.00 0.00 39 1004.6
20260504201514 68 284 6.1 13.0 0.00 0.00 0.00 40 1004.7
20260504200009 66 336 2.6 7.8 0.00 0.00 0.00 44 1004.9
20260504194505 66 283 4.3 14.8 0.00 0.00 0.00 44 1004.9
20260504193110 66 355 5.2 20.0 0.00 0.00 0.00 43 1005.0
20260504191611 65 305 2.6 10.4 0.00 0.00 0.00 45 1005.1
20260504190106 66 270 2.6 7.8 0.00 0.00 0.00 44 1005.1
20260504184552 65 272 2.6 7.8 0.00 0.00 0.00 46 1005.2
20260504183042 63 321 1.7 7.0 0.00 0.00 0.00 49 1005.3
20260504181538 62 257 3.5 8.7 0.00 0.00 0.00 49 1005.5
20260504180034 62 331 4.3 12.2 0.00 0.00 0.00 46 1005.5
20260504174530 63 322 4.3 8.7 0.00 0.00 0.00 44 1005.5
20260504173025 62 267 3.5 13.9 0.00 0.00 0.00 46 1005.6
20260504171523 62 325 5.2 13.0 0.00 0.00 0.00 43 1005.5
20260504081540 32 286 0.9 6.1 0.00 0.00 0.00 5 1008.0
20260504044558 33 309 0.0 0.0 0.00 0.00 0.00 57 1007.6
20260504043101 33 309 0.0 0.0 0.00 0.00 0.00 58 1007.7
20260504041553 34 309 0.0 0.9 0.00 0.00 0.00 59 1007.7
20260504040118 34 309 0.0 0.9 0.00 0.00 0.00 62 1007.7
20260504034547 35 309 0.0 0.9 0.00 0.00 0.00 64 1007.5
20260504033047 35 309 0.0 0.9 0.00 0.00 0.00 66 1007.5
20260504031551 36 309 0.0 1.7 0.00 0.00 0.00 70 1007.5
20260504030033 36 309 0.0 0.0 0.00 0.00 0.00 72 1007.3
20260504024529 37 309 0.0 0.0 0.00 0.01 0.00 73 1007.4
20260504023025 37 309 0.0 0.0 0.00 0.01 0.00 72 1007.6
20260504021519 38 309 0.0 0.0 0.00 0.01 0.00 72 1007.5
20260504020016 39 309 0.0 0.0 0.00 0.01 0.00 71 1007.5
20260504014522 40 309 0.0 0.0 0.00 0.03 0.00 70 1007.3
20260504013006 41 309 0.0 1.7 0.00 0.03 0.00 68 1007.2
20260504011501 42 309 0.0 2.6 0.00 0.03 0.00 66 1007.1
20260504010058 43 309 0.9 3.5 0.00 0.03 0.00 63 1007.0
20260504004554 44 309 0.0 4.3 0.00 0.04 0.00 60 1006.7
20260504003052 45 300 1.7 7.0 0.00 0.04 0.00 57 1006.5
20260504001551 46 300 1.7 7.8 0.00 0.04 0.00 56 1006.2
20260504000040 46 275 0.0 8.7 0.00 0.04 0.00 55 1006.0
20260503234558 47 302 0.0 7.0 0.00 0.06 0.00 52 1005.7
20260503233038 47 325 2.6 12.2 0.00 0.06 0.00 50 1005.5